Wind_Speed
23 24 29 33 32 31 31 31 29 26 26 24 20 20 22 18 14 15 20 22 19 20 20 19 19 17 16 19 19 18 20 22 23 22 23 24 24 25 25 24 24 23 20 18 19 21 21 21 21 22 22 22 22 21 20 19 19 18 17 16 15 14 14 14 13 12 11 11 11 12 12 12 12 13 14 15 14 14 14 14 13 12 12 12 12 11
24 29 33 33 31 30 29 30 30 28 28 28 24 23 24 20 16 16 20 23 24 22 20 20 20 19 17 19 20 20 20 22 24 23 23 24 25 25 25 24 25 24 23 22 22 22 23 23 23 23 23 23 22 20 19 18 17 18 17 15 15 14 15 14 14 13 12 10 10 12 12 12 13 14 15 15 15 15 13 13 12 12 11 11 11 11
28 34 33 30 29 29 29 30 31 31 29 29 27 26 24 19 18 17 16 20 27 23 19 21 22 20 19 20 20 20 22 23 23 24 24 24 25 26 26 26 25 25 25 26 26 25 25 25 25 24 24 23 21 20 19 18 17 17 17 16 15 15 16 15 15 14 13 10 11 13 13 13 14 15 16 15 15 14 13 12 12 11 12 11 11 11
29 32 30 27 28 30 32 31 31 32 32 31 28 26 25 20 19 19 16 18 28 23 17 19 21 19 18 20 22 21 21 22 22 23 24 25 26 26 26 27 26 27 27 28 29 29 28 27 27 27 25 23 22 22 21 19 18 17 16 17 16 16 16 17 16 15 13 12 13 14 14 15 15 15 16 15 14 13 12 12 11 11 11 11 11 11
29 25 24 27 29 31 33 33 32 32 33 33 31 28 24 22 20 19 17 16 24 21 15 15 17 19 19 20 23 22 22 22 22 23 24 25 26 26 26 27 27 28 28 29 30 31 30 30 30 29 27 25 24 23 23 21 20 19 18 18 18 17 17 17 17 16 15 14 15 16 16 17 17 16 15 14 13 13 12 12 12 11 11 11 11 12
31 23 22 27 31 32 34 35 35 33 32 32 33 31 27 24 21 20 18 17 20 19 16 16 14 16 20 22 23 24 25 24 22 24 25 25 26 27 27 27 27 29 29 29 29 30 30 30 30 31 30 29 28 26 25 24 22 21 21 20 20 19 18 18 17 17 17 16 16 17 17 17 17 17 15 14 13 13 12 13 12 12 13 13 13 13
31 27 24 27 31 34 35 37 37 35 32 31 31 31 30 29 25 21 21 22 23 21 18 19 16 14 18 22 23 25 27 25 24 24 25 26 27 28 28 28 28 29 30 29 29 30 30 29 29 31 32 32 31 29 28 27 26 24 23 23 22 21 19 19 18 19 19 19 18 18 18 17 18 17 16 15 15 14 14 13 12 12 13 13 13 12
28 28 29 27 29 33 37 38 37 36 35 32 28 28 29 31 30 25 24 24 25 24 21 22 21 19 19 21 22 25 25 24 26 27 26 27 28 28 29 29 29 29 29 30 30 31 31 28 25 28 31 31 31 32 31 30 29 27 26 25 24 22 21 21 20 20 20 20 19 18 18 18 18 17 16 16 16 16 16 15 14 13 13 12 12 11
25 29 31 29 29 34 38 39 36 36 37 32 27 26 27 29 29 27 25 26 28 26 21 22 22 18 18 21 20 23 26 26 29 30 28 29 28 28 29 29 29 30 29 30 30 30 32 29 23 24 28 30 31 32 33 32 30 29 27 26 25 24 23 22 21 20 20 20 20 19 19 19 19 18 17 16 16 16 17 17 16 15 13 13 12 11
23 26 30 31 32 33 34 34 34 35 36 32 27 26 26 26 28 29 27 28 29 23 19 22 23 16 15 21 22 22 28 31 31 30 29 30 29 28 30 29 29 30 30 30 30 30 32 32 26 21 25 29 30 31 33 33 31 29 28 27 26 25 24 24 23 21 20 20 19 19 19 19 19 19 19 18 17 16 16 17 17 16 14 13 13 12
25 23 26 33 33 30 29 30 33 35 34 31 29 28 27 27 29 31 31 30 24 17 21 25 25 20 14 20 26 26 28 29 30 32 33 33 32 30 32 33 31 32 32 31 31 31 32 33 29 21 21 25 26 29 30 31 30 29 28 27 25 25 25 25 24 22 20 19 19 19 19 19 20 20 20 19 18 17 15 16 16 15 15 14 13 12
29 26 26 31 32 29 27 28 31 34 34 33 31 29 26 26 27 27 28 27 16 12 22 28 28 26 20 21 27 26 27 28 28 32 34 35 36 34 35 36 33 33 34 34 34 33 33 33 29 23 21 22 23 26 28 28 28 28 27 26 25 26 26 26 24 22 20 19 19 19 19 20 20 20 20 19 19 17 15 15 16 15 15 15 14 13
31 32 28 26 29 31 29 28 28 30 34 36 35 31 24 19 17 17 16 16 14 16 24 28 29 28 26 27 28 26 27 29 29 30 30 32 35 35 35 36 35 33 32 32 31 31 32 31 28 25 21 19 19 22 25 26 26 27 26 25 25 26 27 26 24 22 21 20 19 19 20 19 20 21 20 19 18 17 16 16 17 16 16 16 15 13
27 30 31 27 27 31 34 32 30 31 35 39 38 34 25 15 9 10 10 11 15 19 24 28 27 25 26 29 30 29 28 27 28 30 29 29 32 35 34 33 35 35 30 29 30 30 31 30 28 24 20 17 18 20 23 24 24 25 26 25 25 25 27 26 24 23 22 21 21 20 20 20 20 20 19 18 19 17 17 17 17 17 17 16 14 13
22 23 32 34 28 28 36 37 33 30 33 36 35 33 31 25 14 10 11 11 13 17 23 27 24 21 24 25 25 29 30 27 27 29 30 29 29 33 33 31 34 36 31 28 29 29 29 26 22 21 19 18 19 21 24 24 23 24 24 23 23 25 26 26 24 23 22 22 22 21 21 20 20 20 19 19 19 18 18 18 17 17 16 15 14 14
25 23 28 33 30 28 33 36 32 28 29 31 32 34 37 35 27 20 18 19 19 16 19 24 23 23 26 23 19 21 25 28 28 26 28 30 31 32 31 32 36 36 32 30 30 28 26 25 22 20 20 20 20 22 24 24 22 23 23 20 19 22 24 24 24 24 23 23 23 22 21 21 20 20 20 20 20 19 19 18 18 17 15 15 14 14
24 24 23 29 32 30 30 31 32 31 28 28 33 39 40 37 34 28 22 25 24 14 14 22 24 25 26 23 22 22 21 25 28 28 28 30 34 32 27 32 41 41 35 32 31 26 21 23 24 22 23 23 22 22 24 24 23 23 22 18 17 20 22 23 24 24 23 23 23 23 21 21 21 21 22 21 20 20 19 19 19 18 16 15 15 13
21 21 22 27 32 33 30 28 32 36 32 29 33 37 37 34 35 31 19 17 18 11 12 23 26 23 21 20 24 27 24 24 26 28 29 29 34 32 24 29 40 42 38 32 28 22 19 21 25 24 24 25 23 23 23 25 24 23 23 20 17 18 20 21 24 25 24 24 24 23 21 21 21 22 22 22 21 21 20 20 20 19 17 15 14 12
21 20 21 24 29 31 30 28 30 36 40 39 32 29 31 31 31 30 21 14 14 9 10 20 25 24 25 23 22 25 27 27 26 27 28 28 32 32 28 31 35 36 34 31 26 19 18 21 24 25 26 26 24 23 24 25 25 24 25 23 20 19 20 21 24 25 25 25 25 23 22 22 22 22 22 22 21 21 21 20 19 18 16 14 13 11
23 19 19 22 25 28 32 34 35 36 40 42 36 29 32 32 29 31 29 23 17 9 9 17 18 20 27 28 25 25 28 30 29 27 26 27 29 30 30 33 36 34 31 29 25 19 20 24 26 26 28 28 26 24 24 24 26 26 25 25 23 21 21 22 24 26 26 26 26 25 24 23 23 22 21 21 22 22 21 20 18 17 16 14 13 12
27 22 20 20 23 29 35 38 37 34 33 37 40 37 34 33 30 29 30 32 25 12 8 11 12 18 26 26 26 27 23 25 29 28 26 27 29 30 28 30 33 35 32 27 24 22 23 27 29 26 28 31 31 29 27 26 27 27 26 27 25 23 23 23 24 27 27 27 27 27 26 24 23 21 21 22 22 21 21 20 18 18 17 15 14 14
31 24 21 22 25 32 35 34 33 32 30 33 39 41 37 32 30 23 19 30 34 23 16 12 10 18 26 23 25 27 22 20 25 26 26 28 30 30 29 28 31 35 32 28 28 24 20 24 30 27 27 32 34 32 30 28 29 28 27 28 27 25 24 24 24 26 27 28 28 28 27 26 24 22 21 23 23 22 23 22 20 20 19 17 16 17
32 26 23 25 27 28 29 30 32 31 31 31 34 40 40 35 33 26 17 25 34 32 30 24 16 19 25 23 23 25 23 22 24 23 24 28 31 30 29 31 33 35 35 34 31 24 18 21 26 26 27 31 34 35 33 29 29 30 28 29 28 26 25 25 25 26 27 29 29 28 28 27 26 23 23 24 24 24 23 23 21 21 21 18 17 18
33 30 26 24 25 26 26 29 32 31 32 34 34 37 41 41 41 35 25 26 30 31 32 24 15 21 27 24 23 23 20 20 23 22 21 23 28 29 30 33 33 35 40 38 29 22 21 21 24 26 27 27 30 35 35 31 29 30 29 30 30 28 26 25 27 28 28 29 29 29 29 28 27 26 25 25 25 25 23 22 21 20 19 18 17 18
34 33 29 21 17 20 22 24 31 33 33 33 34 34 37 41 43 39 33 28 26 30 32 20 13 25 32 27 24 23 20 21 23 24 22 21 24 27 30 35 33 30 35 35 25 21 22 21 21 23 21 20 24 32 37 33 30 30 30 30 31 29 27 27 28 29 29 28 29 29 30 29 28 27 27 27 27 26 24 23 22 20 18 17 16 17
33 34 34 25 15 14 16 18 25 32 33 32 33 34 35 38 40 41 40 32 22 26 33 28 22 25 30 29 27 23 21 21 21 24 23 20 23 26 26 30 29 26 30 30 23 22 23 19 18 18 16 15 17 26 35 35 31 30 31 31 31 30 28 28 30 31 30 28 26 26 29 30 30 28 28 29 28 26 25 25 23 21 20 19 18 19
32 32 36 37 28 21 22 22 23 27 31 32 33 35 36 36 37 39 40 38 31 25 28 34 34 28 25 29 31 28 24 19 18 23 24 19 21 24 21 17 15 16 21 21 20 23 23 20 18 17 16 15 15 21 30 34 32 31 32 33 32 30 29 29 31 31 29 26 24 24 27 28 29 29 29 29 29 27 26 25 24 23 22 21 22 22
34 32 35 40 38 31 26 25 25 25 29 32 33 35 35 34 36 38 38 40 39 29 22 30 36 34 30 27 28 28 27 22 20 22 25 23 22 25 26 20 14 15 18 20 21 23 23 22 20 20 19 18 17 21 28 32 33 32 32 34 33 31 29 30 32 32 28 25 24 25 25 25 26 29 30 30 29 28 27 25 25 23 21 22 24 24
31 35 35 36 38 38 32 28 27 26 27 30 31 33 35 35 36 39 39 40 40 34 30 30 31 34 36 32 27 26 25 24 24 23 26 26 22 24 30 28 23 21 18 18 21 22 23 23 22 22 21 19 19 22 28 32 33 33 34 35 34 33 31 30 31 32 28 24 24 25 24 24 25 27 30 30 29 29 28 26 25 23 21 23 25 25
25 31 33 31 32 37 37 34 32 29 27 30 30 30 32 34 35 37 38 38 37 38 39 36 31 32 36 36 34 32 27 26 27 27 29 28 23 22 27 26 24 24 22 19 20 22 25 25 20 15 14 16 19 23 28 31 31 32 34 36 35 34 34 31 31 31 27 24 25 26 25 25 26 27 29 30 29 29 29 27 25 22 20 22 24 25
26 27 29 30 30 30 35 37 36 34 31 30 30 29 29 31 34 36 37 36 35 36 39 41 38 33 31 33 35 35 32 30 30 29 30 31 29 27 27 26 22 22 24 26 26 25 27 28 23 15 12 14 16 18 21 26 29 31 35 37 36 35 35 34 32 30 27 24 25 25 25 26 27 27 28 29 28 28 27 26 23 21 21 21 23 24
31 26 26 30 29 28 31 33 35 37 34 31 32 33 33 33 32 33 36 35 35 35 34 37 40 36 32 33 36 37 36 35 35 33 30 30 31 31 32 33 29 24 24 27 27 23 24 28 29 24 18 17 16 14 14 19 25 31 36 37 36 35 36 37 34 30 27 25 25 25 26 27 28 28 29 29 28 26 25 24 23 22 23 24 25 26
34 30 27 27 27 27 27 27 30 33 29 30 37 37 34 34 33 31 31 31 33 35 33 32 34 34 31 31 34 37 38 38 40 40 37 33 32 32 32 35 36 33 30 29 27 22 19 23 29 30 26 23 22 19 15 17 21 29 34 36 36 35 38 39 36 31 29 29 29 29 29 31 31 31 30 29 28 26 24 22 22 23 25 28 29 31
36 36 32 27 27 26 24 25 25 22 21 29 37 35 32 32 33 32 31 29 30 36 37 34 33 33 31 30 31 33 35 36 39 40 40 40 39 37 34 33 33 33 31 29 28 25 23 22 24 29 30 28 25 22 19 18 20 25 32 37 38 37 37 39 37 33 32 32 32 32 33 34 34 32 31 30 29 27 24 24 25 27 28 29 30 31
29 36 37 33 30 26 25 26 20 16 22 28 28 26 29 33 33 32 32 31 30 32 35 36 34 33 32 34 35 34 34 35 36 34 34 37 42 43 40 36 32 29 28 28 27 28 28 27 28 31 33 30 28 26 22 20 21 24 32 38 41 38 36 37 39 36 34 34 34 35 36 35 34 34 33 31 29 27 27 28 28 28 28 27 27 28
18 27 36 37 31 24 25 25 18 16 23 25 21 21 23 27 30 30 31 32 32 30 28 30 30 25 22 27 33 36 37 37 36 35 33 33 37 41 43 42 39 36 33 31 30 30 30 31 33 35 33 30 29 29 26 21 20 25 32 37 40 41 37 37 40 38 36 37 39 38 36 34 33 34 34 31 30 30 31 30 28 26 25 25 26 27
13 16 23 31 31 26 25 25 21 19 20 22 25 24 22 22 24 28 30 31 32 29 25 26 27 19 13 17 25 31 35 37 39 42 43 41 38 37 37 39 43 44 40 36 35 36 36 38 40 40 38 35 33 32 28 22 22 25 33 39 40 41 40 39 41 40 39 41 41 39 36 34 33 32 32 31 31 32 31 29 26 24 23 24 25 24
15 13 15 19 25 29 26 20 17 16 17 22 26 22 20 18 16 20 26 27 28 27 21 21 25 23 19 19 22 24 28 32 38 41 41 42 43 42 40 38 40 42 41 37 35 38 42 44 43 43 42 39 36 35 31 28 27 27 33 41 41 39 40 41 42 42 42 41 40 38 36 34 33 33 33 33 32 32 29 26 22 20 20 21 21 20
15 14 14 15 17 26 27 21 16 14 16 22 24 20 21 19 14 15 19 21 24 26 23 22 25 28 28 24 23 23 20 24 33 36 33 33 36 40 43 41 40 42 43 40 33 32 38 43 43 44 44 41 40 39 36 33 31 29 32 39 43 41 41 42 43 43 42 41 40 38 35 33 34 36 37 35 32 29 25 22 19 18 18 17 16 17
19 16 15 16 16 19 21 20 19 17 16 18 22 20 18 18 17 15 13 13 17 23 29 31 30 31 33 29 25 23 20 19 23 27 32 35 32 31 35 40 40 38 41 44 41 34 36 41 43 44 45 43 41 40 38 35 33 30 30 37 44 44 43 44 44 42 41 42 40 37 35 35 36 37 36 33 29 26 23 20 18 17 16 16 17 19
24 21 19 21 21 20 18 18 19 18 15 14 18 18 14 14 18 19 16 15 14 15 21 26 26 30 35 34 29 28 29 26 21 19 26 35 35 30 29 35 38 33 31 36 40 38 39 42 44 47 47 44 41 38 35 34 33 31 31 37 44 47 47 47 45 42 42 43 41 38 37 37 36 34 32 30 26 23 20 18 17 16 18 20 21 22
25 24 22 23 24 24 23 21 19 18 18 16 15 16 15 14 16 19 19 19 18 16 18 21 23 26 31 34 35 35 34 31 28 24 23 27 35 39 38 36 37 34 30 33 35 35 39 43 45 47 47 43 41 39 35 33 33 31 32 37 43 47 48 48 47 45 45 44 41 39 37 36 33 30 27 24 21 19 19 19 20 23 25 24 26 30
25 26 26 26 24 23 24 22 17 15 20 21 18 16 16 16 16 17 16 18 22 24 24 25 28 28 28 30 36 40 39 35 32 32 26 21 25 36 43 44 43 38 32 33 36 34 35 40 45 48 47 43 41 39 35 33 32 31 31 36 43 47 48 48 48 46 45 42 40 38 36 33 29 26 23 21 20 19 20 22 25 27 27 28 30 31
24 24 25 26 25 24 24 21 17 17 19 21 21 19 18 19 21 21 19 21 25 28 28 29 30 30 30 30 31 36 41 41 37 34 31 26 23 26 33 39 44 44 37 35 38 37 34 39 45 47 45 42 39 37 35 33 31 30 30 35 41 43 43 44 45 44 43 42 40 38 34 31 28 26 25 23 21 21 24 25 25 26 27 27 26 24
21 17 16 19 24 28 26 22 20 19 15 15 19 18 19 22 24 24 23 25 27 29 29 29 29 29 29 29 28 30 35 40 41 38 34 33 30 30 32 34 39 45 43 40 39 38 36 39 42 41 39 36 34 35 35 33 31 31 32 36 40 39 39 41 43 42 42 40 37 34 31 30 29 26 23 22 21 23 26 26 24 24 23 21 21 21
25 21 17 14 18 26 27 23 19 16 13 15 15 13 15 22 26 23 21 23 26 27 27 28 29 29 28 27 27 28 30 35 41 40 35 34 34 35 37 38 37 40 43 42 40 36 33 32 31 30 32 33 34 35 35 32 32 32 33 36 38 37 38 40 39 38 36 34 32 30 29 26 23 20 20 22 24 24 24 22 19 19 19 19 21 22
30 29 22 14 12 18 24 22 19 18 18 18 14 10 11 20 25 24 21 22 25 26 26 28 29 29 29 29 28 29 30 33 40 39 32 31 36 38 38 38 37 40 43 42 39 37 35 32 30 30 34 35 35 36 36 35 35 33 33 35 35 34 34 34 33 34 33 31 30 27 23 20 18 17 19 21 21 19 17 16 17 18 20 20 21 22
27 27 24 18 14 15 21 23 24 25 23 18 14 12 12 14 16 19 21 23 27 28 29 30 31 29 29 28 28 30 30 31 38 41 36 30 30 35 40 41 43 48 47 40 36 36 33 30 29 32 36 37 37 37 36 34 33 31 31 34 33 32 32 32 32 32 30 28 25 22 19 19 19 19 19 18 18 17 17 18 19 18 18 19 21 21
20 21 21 21 16 13 19 25 25 23 21 17 15 16 16 12 11 16 20 22 25 26 25 26 27 28 27 25 26 28 28 27 29 33 34 29 21 20 28 32 31 33 35 34 34 34 31 30 31 33 34 34 34 33 30 28 28 28 31 34 34 33 32 30 28 27 25 23 21 19 18 19 20 20 18 18 19 20 20 18 17 17 18 19 20 22
18 16 18 22 19 15 20 22 21 20 21 20 17 17 18 17 16 19 21 21 21 20 20 21 22 23 24 24 24 25 24 24 24 22 22 22 20 21 21 23 26 29 30 31 33 33 30 29 31 30 29 29 29 28 28 28 30 31 32 32 31 30 28 26 24 23 20 19 18 17 18 20 19 17 16 16 17 17 15 14 15 17 18 19 21 22
15 15 17 19 19 18 18 18 18 20 20 20 19 19 19 19 18 18 18 19 20 20 21 22 21 20 21 21 23 25 25 23 22 20 18 20 22 23 23 23 23 23 22 21 23 24 21 20 22 23 23 25 27 27 28 29 28 28 28 26 25 24 22 20 20 19 17 15 14 13 13 14 13 12 13 13 13 12 13 14 17 19 19 20 22 23
Wind_Direction
206 210 213 215 215 213 215 216 219 224 230 237 238 233 233 234 231 226 221 212 207 205 205 211 210 209 205 187 187 199 199 200 200 199 200 199 199 203 211 215 218 223 220 215 215 216 217 217 218 220 220 222 223 224 223 221 219 218 218 220 225 231 235 239 243 243 243 243 237 232 232 233 234 237 239 239 240 243 250 255 259 261 264 269 272 274
210 217 219 216 216 214 215 218 221 226 230 236 241 244 246 238 230 236 231 212 200 203 207 211 211 211 208 196 196 203 203 204 203 202 203 203 204 205 210 214 217 221 225 224 220 219 221 220 221 223 225 228 229 230 230 228 225 222 223 227 234 239 242 247 248 247 249 246 232 226 228 231 234 235 236 237 236 240 247 252 259 265 268 272 273 273
212 221 222 217 217 216 217 218 220 225 230 235 239 248 252 242 230 237 238 206 192 201 209 206 211 213 205 200 204 208 208 208 208 207 207 205 206 209 210 212 214 219 223 227 223 220 223 224 224 227 229 230 232 232 232 230 228 227 232 238 244 247 248 252 253 248 250 247 226 222 227 228 231 234 235 238 237 240 248 254 258 264 269 272 273 275
215 223 222 218 217 216 217 218 219 223 229 235 237 242 248 247 239 233 233 205 188 198 214 206 210 214 209 210 212 213 212 211 211 210 211 210 210 213 213 212 213 216 220 226 227 224 225 227 228 228 230 232 231 232 233 233 234 234 239 245 248 251 252 255 257 251 248 242 226 223 227 228 229 232 233 236 237 239 247 255 260 264 267 270 273 278
222 225 221 218 218 216 217 218 219 221 225 232 235 237 240 245 245 234 235 218 190 194 213 207 210 220 220 216 211 213 216 212 211 212 213 213 213 213 214 215 218 218 219 226 230 229 227 229 232 233 232 234 234 235 237 238 241 242 244 246 247 251 255 256 256 252 249 244 233 228 229 230 232 234 233 234 238 242 246 254 258 260 263 266 270 277
228 225 218 216 217 217 217 218 219 220 223 228 231 235 238 241 244 233 230 224 202 202 214 208 213 223 222 221 217 209 208 211 215 214 214 214 214 213 212 216 221 221 222 228 233 234 232 231 233 236 236 235 236 238 239 240 242 244 245 246 248 252 255 257 255 250 251 249 240 234 232 233 236 238 238 240 244 244 245 251 254 254 259 262 267 274
229 224 220 217 215 216 218 219 219 218 223 228 227 231 237 241 245 237 229 229 218 215 217 217 226 232 223 225 221 206 204 216 221 215 215 215 214 213 212 214 219 220 223 228 232 234 237 236 232 233 236 237 238 239 241 242 242 244 245 246 249 253 255 257 255 250 251 252 244 237 236 236 236 238 239 240 243 242 243 251 255 257 261 263 263 261
225 222 220 218 215 216 218 219 218 216 222 228 226 226 232 238 244 242 235 235 230 222 219 218 225 237 236 229 220 210 212 223 222 218 218 217 215 215 213 213 216 220 224 227 229 230 236 242 237 233 236 238 240 242 242 243 244 244 246 247 248 251 253 255 256 253 253 253 247 239 238 238 236 237 238 237 239 242 247 253 257 259 262 261 254 246
222 221 219 217 216 217 218 218 217 216 221 227 227 228 230 231 240 246 242 242 239 231 223 216 217 233 241 231 221 216 219 223 222 220 218 215 214 215 215 214 214 219 225 228 228 227 232 242 244 239 240 241 242 243 243 243 245 246 246 247 247 248 249 252 255 256 254 251 245 239 237 236 234 235 236 236 238 246 252 254 255 256 257 254 248 242
224 223 220 219 220 220 220 219 217 219 222 226 228 232 234 230 233 238 239 248 252 245 233 222 216 225 242 234 226 222 221 220 220 220 218 216 216 218 219 216 212 216 222 226 229 228 230 240 250 248 244 243 242 244 245 245 245 247 246 245 245 245 247 249 253 256 254 248 241 237 235 233 232 233 235 237 240 247 250 248 247 247 244 244 244 242
232 228 221 222 224 222 222 220 219 220 222 225 227 231 237 238 236 231 228 238 252 252 241 234 223 218 232 237 231 228 225 221 219 220 220 221 222 222 220 217 213 213 216 220 225 226 228 236 246 248 244 244 242 242 245 246 245 245 244 243 242 243 245 246 249 252 251 243 237 234 232 230 229 230 233 236 237 240 241 239 238 234 230 232 234 234
234 232 222 222 224 222 221 222 221 220 221 223 224 227 233 237 241 241 233 229 235 249 244 242 233 225 225 233 233 231 229 225 223 222 220 221 222 218 219 222 222 220 219 220 222 224 229 237 241 239 239 243 243 242 245 247 247 246 245 243 241 240 241 243 244 246 243 236 232 229 228 227 226 227 231 234 233 232 231 230 229 224 221 223 224 225
229 231 227 222 221 219 219 221 219 217 218 220 220 222 227 229 231 240 243 234 230 237 237 235 234 235 236 237 235 234 231 227 224 224 222 220 216 212 218 225 228 230 229 228 231 232 235 240 240 234 233 237 240 243 246 248 249 249 248 245 242 239 239 240 240 239 235 230 226 225 225 224 222 224 229 231 227 223 221 223 223 220 220 220 221 224
223 227 228 223 218 216 217 217 214 211 214 217 216 214 218 224 220 221 232 242 235 233 238 238 236 241 245 242 235 232 233 229 226 225 224 220 213 214 224 229 231 238 235 228 232 236 237 239 237 232 229 232 237 241 244 247 248 248 249 247 243 239 237 238 237 232 228 225 222 220 221 220 218 222 225 225 222 217 215 218 220 219 219 219 221 226
220 222 222 220 217 213 215 217 213 211 215 216 214 212 218 223 223 224 224 233 240 239 242 243 240 239 243 242 231 228 231 229 227 226 223 222 216 217 227 226 227 237 237 229 231 231 230 233 234 230 228 228 233 238 242 244 243 244 247 248 244 239 237 235 231 226 223 222 218 215 215 215 215 217 219 219 218 214 213 217 219 219 219 220 223 227
225 228 221 218 219 214 214 216 213 213 217 216 211 215 222 223 224 233 238 235 237 239 239 242 243 239 240 243 233 227 230 226 225 225 223 221 218 223 231 222 221 233 238 237 239 236 231 232 231 228 227 228 230 235 240 241 238 240 244 247 245 240 237 234 227 221 220 219 215 211 210 211 211 213 215 215 214 212 213 216 219 221 220 222 226 228
224 232 223 217 219 217 214 214 210 212 214 211 211 217 222 222 224 232 243 242 238 238 236 238 244 240 235 239 237 231 230 226 224 224 223 219 219 226 231 219 221 234 240 240 240 241 243 238 231 228 227 228 229 230 234 236 234 236 241 244 243 239 236 230 223 219 217 216 212 209 208 210 211 211 212 213 213 213 214 217 220 223 221 222 229 233
227 234 226 215 217 216 213 213 212 214 215 212 213 217 218 221 225 229 236 241 235 237 240 235 241 242 235 235 231 226 228 227 222 223 224 221 221 223 220 214 222 233 238 236 231 238 252 242 234 236 233 228 228 227 230 236 238 237 239 241 239 237 234 227 219 217 217 215 212 210 210 211 212 211 212 213 214 215 218 221 224 226 226 228 236 244
230 239 231 216 216 213 206 209 214 215 217 220 221 215 211 215 220 220 224 238 234 231 240 238 239 240 238 239 230 222 227 226 216 214 219 221 223 222 217 218 223 226 227 224 221 235 253 241 236 243 239 229 227 227 227 234 240 239 237 238 235 232 232 227 218 216 217 216 214 213 212 213 214 213 213 215 217 220 224 228 232 234 236 243 251 261
225 235 236 219 212 206 200 205 213 213 213 220 229 227 217 217 220 218 221 233 239 234 233 237 238 234 234 240 237 230 230 226 217 214 217 220 223 223 224 227 225 217 211 209 213 236 251 241 240 249 247 235 229 230 228 229 236 236 234 236 233 227 226 223 217 215 217 217 217 216 214 215 217 216 217 220 223 226 232 237 242 245 251 260 267 276
224 229 236 223 205 200 203 205 210 213 208 211 222 229 223 218 221 223 225 227 229 234 235 234 239 234 232 236 239 238 234 222 218 223 226 223 223 226 228 229 220 204 195 199 218 244 251 238 238 250 252 242 235 236 233 229 232 233 231 232 231 226 222 220 217 215 216 218 218 218 217 217 219 220 222 226 229 232 238 245 250 253 260 270 274 280
221 222 227 226 209 204 209 211 210 213 212 209 214 222 223 218 214 218 227 225 224 229 235 238 246 238 233 233 235 241 238 220 218 230 233 226 223 226 225 224 213 197 195 213 232 244 245 236 238 243 244 241 239 239 237 232 231 231 229 229 229 226 222 220 218 216 217 218 219 220 220 220 222 224 226 231 235 237 241 249 254 255 263 275 280 281
217 220 222 226 223 216 214 214 214 214 216 217 216 218 222 222 216 213 217 221 223 226 227 232 246 240 234 235 234 238 237 225 221 227 229 227 224 223 222 222 218 212 219 231 235 237 242 240 238 234 230 234 237 241 242 237 230 229 228 228 228 227 223 221 220 219 218 220 220 221 222 223 225 226 229 234 238 240 243 251 257 259 266 277 284 281
212 220 220 221 228 233 226 217 216 215 215 220 221 218 218 222 221 220 222 221 224 229 224 223 239 238 233 234 232 235 235 231 228 222 224 230 223 219 222 224 226 230 230 226 224 232 238 233 229 222 218 222 228 236 241 238 231 230 229 227 228 227 223 222 223 222 221 223 223 223 225 227 227 228 231 235 239 242 245 250 256 262 270 277 281 279
207 215 218 215 218 232 232 218 210 211 213 217 222 222 219 221 224 227 232 230 228 232 230 226 230 230 230 232 232 233 235 236 234 224 223 226 217 217 225 227 231 232 219 211 216 227 224 219 223 222 216 217 222 229 236 238 235 232 230 229 228 226 223 222 224 223 223 225 225 225 227 229 230 231 232 235 239 242 245 249 253 259 267 273 276 277
207 209 213 216 212 212 222 217 204 205 212 217 221 224 222 221 222 225 231 236 232 227 228 234 242 232 223 225 228 228 231 237 232 220 218 216 210 213 217 217 222 219 205 205 216 219 213 213 219 222 225 229 224 224 229 235 236 234 233 233 230 226 222 222 225 225 223 226 228 227 227 229 231 232 233 235 240 242 245 249 253 256 262 269 274 276
211 212 212 218 222 217 217 220 211 205 211 217 218 221 223 223 222 222 226 232 235 229 225 232 244 246 229 223 224 221 221 231 229 219 218 212 203 207 211 209 212 210 209 216 217 213 217 221 220 221 230 238 233 223 225 231 236 236 236 236 233 227 222 223 227 226 224 228 233 231 229 229 231 233 233 235 240 243 245 250 255 257 261 267 270 275
212 217 214 216 224 226 223 222 219 213 215 220 220 220 223 225 225 224 224 227 231 234 233 230 234 242 241 233 226 223 221 225 227 224 225 223 212 212 222 226 217 213 223 230 225 221 226 228 227 225 229 240 242 227 224 231 237 237 237 238 236 229 224 225 228 227 226 231 234 233 232 232 232 233 234 236 240 244 248 254 260 263 263 263 266 272
216 224 219 216 220 225 227 226 225 223 220 222 225 223 222 224 226 227 227 227 228 232 237 234 229 235 242 239 230 229 228 224 225 223 221 225 226 220 221 222 215 212 219 225 224 225 227 230 231 229 233 250 255 238 230 235 239 238 237 237 236 231 227 228 229 228 230 232 232 232 232 232 232 232 234 237 240 246 251 256 262 266 266 262 265 272
225 229 223 219 221 221 224 228 231 233 230 227 229 228 224 222 225 229 231 230 229 231 237 242 240 234 236 237 234 234 236 231 229 224 217 223 234 223 212 212 214 217 223 229 234 236 234 233 231 230 240 254 254 245 241 242 244 241 236 236 236 231 227 228 230 231 231 230 230 231 229 229 231 232 236 239 241 245 250 255 261 266 264 262 265 271
225 229 220 220 227 223 221 224 228 234 236 232 231 230 229 226 224 226 231 232 231 231 234 241 246 240 233 234 234 236 239 236 230 225 221 227 236 229 216 213 216 222 227 232 243 250 245 235 225 224 243 253 250 250 252 251 250 245 238 235 235 232 226 226 230 231 229 228 228 227 225 228 234 237 239 242 243 244 248 253 259 261 260 261 264 267
220 226 222 220 229 230 223 222 223 228 235 240 236 230 228 230 229 226 225 227 231 233 234 237 241 242 238 236 237 238 239 236 229 225 224 229 232 230 225 223 225 232 237 238 243 251 249 240 230 225 238 254 256 262 275 271 258 247 239 234 234 232 226 224 229 230 226 224 224 224 228 235 240 243 244 245 246 248 250 254 257 260 262 264 263 262
218 223 223 220 225 229 226 225 222 222 229 235 234 231 229 230 235 235 228 222 224 230 237 242 244 244 242 239 238 237 236 235 232 228 227 231 232 229 228 229 232 241 248 246 242 240 243 246 238 228 234 250 255 261 282 292 272 252 240 233 233 232 226 223 228 229 223 222 223 224 230 238 242 245 246 247 249 252 254 256 258 261 264 263 262 261
217 221 221 222 224 224 225 228 226 223 227 230 229 233 237 235 235 238 235 229 226 224 226 232 238 242 242 241 241 239 235 235 234 232 232 235 236 236 235 233 235 241 243 239 236 234 237 247 245 236 240 249 250 254 272 289 281 259 243 235 232 231 227 225 228 228 224 224 226 226 230 236 240 243 244 247 250 252 255 258 259 261 262 261 260 260
217 220 219 221 224 223 223 227 229 224 227 232 231 231 238 240 241 244 240 235 235 233 227 226 230 235 237 239 242 245 245 240 236 236 237 235 235 239 241 237 233 233 229 226 233 239 238 243 248 247 248 249 246 248 262 280 280 259 241 235 232 230 229 228 229 229 226 226 229 231 233 234 236 239 242 244 247 251 255 258 257 256 256 257 259 260
227 227 218 216 218 221 220 219 227 234 231 236 241 236 235 239 243 249 249 242 240 243 243 241 239 238 239 240 240 244 249 249 245 245 244 237 232 236 242 243 238 234 231 229 235 244 245 246 248 248 250 251 249 248 253 268 275 255 236 231 230 230 229 228 230 231 229 228 233 236 236 235 236 238 240 242 245 252 256 256 253 252 254 257 259 259
246 250 229 215 211 216 221 220 226 240 240 236 237 235 233 236 238 240 246 245 239 239 248 251 246 246 252 248 242 242 245 247 248 250 250 247 241 238 242 245 241 238 239 239 240 245 249 251 250 250 253 256 251 246 247 259 271 256 236 229 229 229 228 229 231 232 230 231 236 238 238 238 237 238 239 242 248 254 256 253 252 254 256 256 257 253
238 255 253 233 213 209 218 225 224 232 235 229 227 226 225 232 235 231 235 241 236 233 243 252 249 251 252 242 238 241 243 243 244 247 249 248 246 244 245 244 240 239 240 240 243 246 246 246 248 249 252 254 247 243 249 260 265 257 239 232 230 228 227 229 231 231 232 234 236 238 239 238 237 238 242 247 252 254 253 252 252 251 249 246 244 241
241 246 250 250 225 207 212 222 223 225 226 220 218 221 223 226 231 232 239 246 243 240 247 250 248 250 248 239 235 241 250 254 250 247 243 239 241 247 248 244 241 241 238 235 237 243 243 244 246 248 250 250 244 243 251 257 259 257 245 235 232 230 228 229 231 232 232 234 237 237 237 236 236 240 245 249 251 249 247 245 240 237 236 236 242 253
237 243 240 239 232 219 219 225 227 230 231 221 216 216 215 217 224 232 239 242 239 240 245 247 249 251 249 244 243 244 249 259 261 254 247 243 246 252 248 239 236 242 243 237 234 238 244 247 247 248 251 250 245 246 251 252 254 257 249 237 233 232 231 231 233 233 234 236 238 238 236 235 238 241 243 244 242 241 239 234 227 230 240 251 269 279
236 238 236 232 231 228 227 231 235 236 236 223 209 204 197 199 215 228 235 235 232 232 239 245 251 254 250 246 246 247 244 246 258 261 249 246 249 251 242 232 231 237 241 235 232 235 242 245 245 247 251 251 250 250 249 247 251 254 246 235 231 232 234 234 234 234 235 237 237 236 235 237 238 238 237 236 234 231 228 223 226 243 256 263 276 284
238 239 236 233 231 226 224 231 238 239 234 221 203 202 206 205 211 222 231 235 237 238 243 248 252 253 251 246 243 244 243 244 249 248 245 252 254 247 239 232 231 233 231 226 225 230 238 242 243 247 251 253 253 249 243 242 247 248 241 235 231 230 231 233 233 232 233 236 237 237 237 235 232 229 226 222 218 216 219 229 245 260 267 272 283 290
240 238 233 231 231 227 225 228 232 239 238 228 212 203 206 211 216 222 230 238 241 242 246 251 252 253 255 251 244 241 241 245 245 239 244 268 265 245 237 234 231 230 230 228 227 230 237 241 242 245 249 251 250 245 238 237 243 243 238 233 229 226 226 229 232 233 233 234 235 234 230 226 221 216 209 203 207 221 238 251 260 268 276 283 292 294
246 238 239 239 233 228 228 228 230 238 236 223 212 207 208 218 223 224 231 242 245 246 249 251 253 255 257 258 254 246 243 247 247 241 245 265 267 245 237 236 233 232 236 240 237 234 235 239 241 243 246 245 241 235 229 229 235 236 229 223 223 225 228 232 235 235 233 231 229 226 222 217 211 204 201 207 222 242 257 267 275 281 285 289 296 294
244 255 276 261 238 230 231 232 233 234 222 203 204 207 208 214 219 223 230 238 243 248 251 251 253 256 258 260 262 258 254 254 255 254 255 259 258 250 245 244 240 239 242 242 236 230 230 234 236 237 235 229 222 220 221 224 230 230 221 215 218 222 225 228 229 228 225 222 219 215 210 203 198 200 208 225 245 261 269 275 282 285 285 289 294 286
248 266 283 267 239 230 227 226 227 220 193 182 191 189 191 205 217 225 233 238 243 248 251 251 254 258 260 262 264 267 268 264 261 263 264 259 253 249 247 248 247 246 245 241 234 229 229 228 224 218 214 209 208 212 214 213 216 219 214 211 214 217 218 219 218 213 209 206 201 197 195 195 201 218 237 253 264 270 271 275 281 284 285 289 286 275
256 261 265 263 248 225 212 206 205 193 174 169 174 171 189 213 225 232 236 242 249 255 257 257 259 262 264 267 268 270 271 266 259 257 258 256 251 247 243 242 243 247 247 240 229 219 212 206 198 194 195 197 201 205 203 200 203 208 210 211 212 211 206 202 198 195 194 193 190 192 200 212 228 250 266 270 268 263 262 271 282 286 286 284 277 268
263 262 262 263 253 221 200 190 187 185 176 169 176 198 215 223 230 238 243 248 254 259 260 260 262 264 265 267 268 266 264 260 252 247 244 245 247 246 246 247 249 251 247 234 216 206 200 194 192 194 196 195 195 197 198 198 199 202 205 204 198 189 185 183 185 189 191 191 194 205 222 234 246 261 271 265 253 253 265 278 282 281 280 278 271 264
270 265 260 257 248 209 179 172 175 183 184 180 193 216 218 207 211 230 240 245 250 253 255 256 258 259 259 260 259 257 253 247 243 241 241 238 229 226 234 236 232 228 222 211 200 195 191 188 188 192 195 193 192 193 194 193 187 184 186 185 179 178 180 182 185 190 194 199 211 228 243 253 261 265 258 248 251 265 276 277 274 275 276 273 266 260
269 262 252 250 243 206 174 167 172 182 181 175 185 206 207 203 217 235 244 247 247 244 244 248 253 254 254 251 246 239 235 230 226 222 221 213 190 172 178 184 178 176 180 184 185 186 187 187 184 182 182 179 177 177 176 172 169 170 173 176 178 182 185 187 193 202 211 223 238 251 258 263 265 258 246 250 268 278 275 266 265 269 269 263 259 256
260 241 231 240 239 218 194 179 182 192 191 184 190 203 209 213 225 239 247 250 251 250 250 250 250 245 242 239 231 221 211 202 195 187 178 171 164 156 156 161 167 168 167 171 177 181 185 182 168 159 156 156 156 159 162 164 167 171 174 178 182 186 192 200 209 217 226 237 248 252 251 253 253 247 252 270 284 282 267 258 256 259 259 255 254 254
Height
3132 3132 3130 3129 3131 3134 3138 3140 3142 3143 3143 3141 3140 3139 3138 3137 3137 3140 3142 3144 3146 3148 3149 3151 3153 3153 3154 3157 3158 3159 3161 3162 3162 3163 3164 3165 3165 3165 3165 3165 3166 3167 3169 3171 3172 3173 3174 3176 3177 3178 3180 3181 3182 3184 3186 3187 3189 3190 3191 3192 3193 3194 3195 3195 3196 3197 3198 3199 3199 3201 3202 3203 3204 3204 3205 3205 3206 3206 3206 3206 3207 3208 3209 3209 3210 3210
3129 3127 3124 3126 3130 3134 3137 3139 3141 3142 3141 3140 3139 3138 3136 3135 3136 3137 3138 3139 3143 3145 3146 3149 3151 3151 3152 3155 3157 3158 3159 3160 3161 3162 3162 3163 3164 3164 3164 3165 3165 3166 3168 3169 3170 3172 3173 3174 3175 3177 3178 3180 3181 3183 3184 3186 3187 3188 3189 3190 3191 3192 3193 3194 3195 3196 3196 3197 3198 3199 3200 3201 3202 3203 3203 3204 3204 3205 3205 3205 3206 3207 3208 3208 3209 3209
3124 3121 3122 3126 3130 3133 3135 3137 3139 3139 3140 3139 3138 3137 3134 3133 3134 3135 3135 3137 3139 3142 3144 3146 3148 3149 3150 3153 3155 3156 3157 3158 3159 3160 3161 3162 3163 3163 3163 3163 3164 3165 3166 3167 3168 3169 3171 3172 3174 3175 3176 3178 3180 3181 3183 3184 3185 3187 3188 3189 3190 3190 3191 3192 3193 3194 3195 3196 3197 3198 3199 3199 3200 3201 3201 3202 3203 3203 3204 3204 3205 3206 3206 3207 3207 3207
3118 3117 3122 3126 3129 3131 3133 3134 3136 3137 3138 3137 3136 3136 3134 3133 3133 3132 3134 3135 3137 3140 3142 3143 3146 3148 3149 3150 3152 3154 3156 3157 3158 3159 3160 3160 3161 3161 3162 3162 3163 3164 3164 3164 3165 3167 3169 3170 3171 3173 3175 3177 3178 3180 3181 3182 3184 3185 3186 3187 3188 3189 3190 3191 3192 3193 3194 3194 3195 3196 3197 3198 3198 3199 3200 3201 3201 3202 3203 3203 3204 3205 3205 3206 3206 3206
3116 3118 3122 3125 3126 3128 3130 3131 3133 3134 3134 3134 3134 3134 3133 3132 3132 3131 3133 3135 3136 3138 3140 3142 3144 3146 3147 3147 3148 3151 3154 3155 3156 3157 3158 3158 3159 3160 3161 3161 3162 3162 3163 3163 3163 3164 3166 3168 3169 3171 3173 3175 3176 3178 3179 3181 3182 3184 3185 3186 3187 3187 3188 3189 3190 3191 3192 3193 3193 3194 3195 3196 3196 3197 3198 3199 3200 3201 3201 3202 3203 3203 3204 3204 3204 3205
3115 3118 3120 3121 3123 3125 3126 3127 3129 3130 3131 3131 3131 3131 3132 3131 3131 3131 3133 3135 3135 3136 3138 3140 3141 3142 3144 3145 3145 3147 3150 3152 3153 3154 3155 3156 3157 3159 3160 3160 3160 3160 3161 3161 3162 3162 3163 3166 3167 3169 3171 3173 3174 3176 3178 3179 3181 3182 3183 3184 3185 3186 3187 3188 3188 3189 3190 3191 3191 3192 3193 3194 3195 3196 3197 3198 3199 3199 3200 3201 3201 3202 3203 3203 3203 3203
3113 3116 3118 3118 3119 3121 3123 3123 3125 3127 3128 3127 3128 3130 3131 3130 3130 3130 3131 3132 3131 3132 3136 3138 3138 3138 3140 3142 3143 3144 3146 3149 3150 3151 3152 3154 3155 3156 3158 3159 3159 3159 3159 3160 3160 3160 3160 3162 3165 3166 3168 3170 3172 3174 3176 3177 3178 3180 3181 3182 3183 3184 3185 3186 3187 3187 3188 3188 3189 3190 3192 3193 3194 3195 3196 3197 3197 3198 3199 3200 3200 3201 3202 3202 3202 3202
3110 3113 3114 3115 3116 3118 3118 3118 3120 3124 3124 3123 3126 3129 3129 3129 3128 3128 3128 3128 3128 3129 3132 3134 3136 3137 3137 3138 3140 3142 3144 3145 3147 3148 3149 3151 3152 3153 3155 3157 3157 3157 3157 3158 3159 3159 3158 3159 3161 3163 3166 3168 3171 3172 3173 3175 3176 3178 3179 3180 3182 3183 3183 3184 3185 3185 3186 3186 3188 3189 3190 3191 3193 3193 3194 3195 3196 3197 3197 3198 3199 3200 3200 3201 3201 3201
3108 3109 3109 3111 3113 3112 3111 3113 3118 3121 3121 3121 3125 3126 3126 3127 3127 3126 3126 3125 3126 3126 3125 3128 3133 3134 3134 3135 3138 3139 3140 3142 3143 3145 3146 3148 3149 3150 3152 3154 3155 3156 3156 3156 3156 3158 3158 3157 3158 3161 3163 3166 3168 3170 3171 3172 3174 3175 3177 3178 3179 3180 3181 3182 3183 3183 3184 3185 3186 3187 3188 3190 3191 3192 3193 3194 3195 3195 3196 3197 3198 3198 3199 3200 3200 3200
3106 3106 3107 3108 3107 3107 3109 3113 3117 3118 3119 3121 3124 3124 3124 3125 3125 3126 3125 3123 3123 3121 3119 3123 3128 3130 3130 3132 3135 3136 3136 3137 3140 3142 3143 3145 3146 3148 3149 3150 3153 3154 3155 3154 3154 3156 3157 3156 3156 3158 3160 3162 3165 3167 3168 3169 3171 3172 3174 3175 3177 3178 3179 3180 3180 3181 3182 3183 3184 3185 3186 3188 3189 3191 3191 3192 3193 3194 3195 3195 3196 3197 3198 3198 3198 3199
3103 3104 3105 3104 3103 3105 3109 3112 3114 3115 3117 3121 3122 3122 3122 3122 3122 3122 3121 3122 3121 3115 3115 3119 3123 3126 3126 3127 3130 3131 3132 3134 3136 3137 3138 3140 3143 3145 3146 3147 3149 3151 3152 3153 3153 3154 3155 3155 3155 3156 3156 3158 3160 3164 3165 3166 3168 3169 3170 3172 3174 3175 3176 3177 3178 3179 3180 3181 3182 3184 3185 3187 3188 3189 3190 3191 3192 3193 3193 3194 3194 3196 3197 3197 3197 3197
3100 3100 3099 3100 3101 3105 3107 3108 3110 3112 3116 3118 3118 3119 3120 3119 3119 3117 3116 3117 3115 3112 3114 3117 3120 3121 3119 3120 3125 3127 3128 3131 3132 3132 3133 3135 3138 3140 3142 3143 3145 3147 3148 3150 3150 3151 3152 3152 3153 3154 3154 3154 3156 3159 3162 3163 3164 3166 3167 3169 3171 3173 3174 3175 3176 3177 3178 3179 3181 3182 3184 3185 3187 3188 3188 3189 3190 3191 3192 3192 3193 3194 3195 3195 3196 3196
3095 3095 3095 3097 3099 3101 3103 3104 3106 3109 3111 3113 3114 3116 3116 3115 3116 3115 3112 3112 3109 3109 3112 3115 3116 3113 3110 3114 3120 3122 3124 3126 3128 3129 3131 3132 3134 3136 3138 3139 3140 3142 3144 3145 3147 3148 3149 3149 3151 3152 3152 3152 3152 3154 3157 3160 3161 3163 3164 3166 3168 3170 3171 3172 3174 3175 3176 3177 3179 3180 3182 3184 3185 3186 3187 3188 3189 3189 3190 3191 3191 3193 3193 3194 3195 3196
3091 3092 3093 3094 3094 3096 3098 3099 3100 3102 3104 3106 3107 3110 3111 3110 3111 3112 3112 3109 3105 3105 3109 3111 3110 3106 3106 3110 3113 3117 3120 3122 3124 3125 3127 3129 3130 3131 3134 3136 3137 3138 3140 3142 3143 3144 3145 3146 3148 3150 3150 3150 3150 3151 3154 3157 3159 3160 3161 3163 3165 3167 3169 3170 3171 3173 3174 3175 3177 3179 3180 3182 3183 3184 3185 3186 3187 3188 3189 3189 3190 3191 3191 3192 3194 3194
3086 3085 3086 3088 3089 3091 3092 3092 3095 3098 3101 3101 3103 3107 3106 3105 3106 3108 3108 3106 3103 3104 3108 3109 3104 3101 3103 3105 3108 3112 3115 3118 3120 3121 3124 3126 3127 3128 3130 3133 3134 3134 3137 3139 3140 3141 3142 3144 3146 3147 3148 3148 3148 3149 3151 3153 3156 3157 3158 3160 3162 3164 3166 3168 3169 3171 3172 3174 3175 3177 3179 3180 3181 3182 3183 3185 3185 3186 3187 3188 3189 3189 3190 3191 3192 3193
3081 3079 3081 3085 3086 3087 3088 3090 3095 3098 3097 3098 3102 3104 3101 3101 3104 3104 3102 3101 3102 3103 3103 3102 3099 3099 3102 3103 3105 3109 3110 3113 3116 3118 3120 3122 3124 3126 3127 3129 3130 3130 3132 3135 3137 3139 3140 3142 3144 3145 3146 3146 3146 3147 3148 3150 3153 3155 3156 3158 3160 3162 3164 3165 3167 3169 3170 3172 3174 3175 3177 3178 3180 3181 3182 3183 3183 3184 3185 3186 3187 3187 3188 3190 3190 3191
3077 3076 3079 3082 3082 3084 3086 3089 3093 3093 3092 3095 3097 3095 3095 3100 3103 3101 3100 3100 3100 3099 3097 3097 3096 3097 3099 3100 3103 3106 3107 3110 3112 3114 3116 3117 3119 3121 3122 3125 3126 3125 3128 3131 3134 3137 3138 3139 3141 3143 3143 3143 3143 3144 3145 3147 3150 3153 3155 3157 3158 3160 3161 3163 3165 3167 3168 3170 3172 3173 3175 3176 3177 3179 3180 3181 3182 3183 3184 3184 3185 3185 3186 3188 3188 3189
3074 3073 3074 3077 3078 3080 3085 3087 3089 3089 3089 3089 3088 3088 3094 3099 3099 3098 3099 3098 3096 3094 3093 3093 3093 3094 3095 3095 3098 3102 3103 3106 3108 3110 3113 3113 3114 3116 3117 3119 3120 3121 3124 3128 3131 3133 3134 3136 3138 3139 3139 3139 3140 3142 3144 3146 3148 3151 3153 3155 3157 3158 3159 3161 3163 3165 3167 3168 3170 3171 3173 3174 3175 3177 3178 3179 3180 3181 3181 3182 3182 3183 3184 3186 3186 3188
3072 3070 3069 3072 3074 3077 3082 3084 3084 3083 3084 3083 3082 3086 3090 3090 3089 3092 3094 3092 3090 3090 3091 3091 3090 3092 3092 3092 3094 3097 3099 3101 3104 3106 3108 3110 3111 3112 3113 3114 3114 3117 3120 3123 3127 3129 3131 3133 3134 3135 3136 3137 3138 3140 3142 3144 3146 3149 3151 3153 3155 3156 3157 3159 3161 3163 3164 3166 3168 3169 3171 3172 3173 3175 3176 3177 3178 3178 3179 3180 3180 3181 3182 3184 3185 3187
3070 3069 3066 3067 3070 3073 3076 3076 3074 3074 3078 3081 3082 3084 3085 3083 3084 3087 3089 3088 3086 3087 3090 3089 3087 3087 3088 3090 3092 3093 3094 3097 3100 3102 3104 3107 3109 3110 3111 3109 3107 3112 3116 3118 3122 3125 3128 3131 3131 3132 3133 3134 3136 3137 3140 3142 3143 3146 3149 3150 3152 3154 3155 3157 3158 3160 3162 3163 3165 3167 3169 3170 3171 3173 3174 3175 3175 3176 3177 3177 3178 3179 3181 3183 3184 3186
3067 3067 3064 3064 3066 3067 3066 3065 3067 3070 3075 3079 3079 3078 3078 3079 3081 3083 3083 3084 3084 3085 3085 3085 3082 3081 3085 3088 3089 3089 3091 3094 3096 3099 3101 3104 3106 3108 3111 3108 3103 3105 3110 3114 3118 3121 3124 3127 3128 3129 3130 3132 3134 3135 3137 3139 3141 3143 3146 3148 3150 3152 3153 3154 3156 3158 3159 3161 3163 3164 3166 3167 3169 3170 3172 3172 3173 3174 3175 3175 3176 3177 3179 3181 3183 3184
3063 3064 3063 3061 3059 3059 3059 3062 3067 3070 3072 3073 3074 3073 3073 3074 3077 3079 3079 3079 3081 3080 3080 3082 3080 3078 3082 3086 3086 3087 3089 3091 3094 3097 3098 3101 3103 3105 3108 3109 3106 3104 3106 3111 3115 3119 3121 3124 3125 3126 3128 3129 3131 3132 3133 3135 3138 3140 3142 3145 3147 3149 3151 3152 3153 3155 3156 3158 3160 3162 3163 3165 3167 3168 3170 3170 3170 3172 3172 3173 3174 3176 3178 3179 3181 3182
3060 3061 3060 3058 3055 3055 3058 3062 3064 3067 3069 3070 3069 3070 3071 3071 3071 3072 3072 3073 3076 3075 3077 3080 3077 3076 3080 3083 3084 3085 3087 3089 3091 3093 3095 3096 3099 3101 3104 3108 3108 3106 3106 3109 3112 3115 3117 3120 3122 3124 3126 3126 3128 3129 3130 3132 3134 3136 3139 3142 3144 3146 3148 3150 3151 3152 3154 3155 3157 3159 3161 3162 3164 3166 3167 3167 3168 3169 3170 3171 3173 3174 3176 3177 3179 3180
3057 3056 3055 3056 3056 3055 3056 3059 3061 3063 3065 3065 3063 3064 3066 3065 3065 3065 3066 3070 3071 3068 3070 3073 3072 3074 3079 3081 3082 3084 3085 3087 3088 3090 3092 3094 3095 3098 3101 3103 3105 3105 3105 3107 3109 3111 3113 3115 3119 3121 3124 3124 3124 3125 3126 3128 3131 3133 3136 3138 3140 3143 3145 3147 3148 3149 3151 3153 3155 3157 3158 3160 3161 3163 3164 3164 3165 3166 3168 3170 3171 3172 3174 3175 3177 3178
3050 3050 3051 3052 3053 3053 3052 3051 3053 3056 3058 3059 3059 3061 3061 3063 3065 3065 3066 3067 3066 3064 3065 3067 3067 3071 3076 3079 3081 3082 3083 3085 3086 3087 3090 3091 3093 3096 3097 3099 3101 3102 3103 3105 3107 3109 3110 3113 3115 3118 3120 3121 3121 3121 3122 3124 3127 3130 3132 3135 3137 3140 3143 3145 3145 3146 3148 3150 3152 3154 3155 3157 3158 3160 3161 3162 3162 3163 3165 3167 3169 3170 3172 3173 3175 3176
3044 3045 3046 3045 3043 3045 3044 3041 3043 3049 3054 3055 3056 3057 3058 3060 3062 3063 3064 3063 3061 3061 3065 3065 3064 3067 3073 3076 3078 3080 3082 3083 3084 3086 3088 3089 3092 3094 3094 3094 3097 3099 3100 3103 3106 3108 3110 3112 3114 3116 3119 3119 3119 3119 3119 3121 3124 3127 3129 3131 3134 3137 3140 3141 3142 3143 3145 3147 3149 3151 3152 3153 3155 3157 3158 3159 3159 3161 3163 3164 3166 3168 3169 3171 3172 3173
3041 3041 3041 3040 3038 3039 3040 3040 3043 3048 3050 3050 3051 3053 3054 3055 3057 3059 3060 3058 3057 3059 3061 3062 3064 3066 3069 3072 3074 3077 3080 3081 3082 3084 3085 3087 3091 3092 3091 3091 3095 3097 3098 3101 3104 3106 3108 3111 3113 3115 3116 3117 3117 3117 3117 3118 3121 3124 3126 3128 3130 3133 3137 3138 3139 3140 3142 3144 3146 3147 3148 3150 3152 3154 3155 3156 3157 3158 3160 3162 3163 3165 3167 3169 3170 3170
3036 3036 3036 3037 3037 3038 3040 3041 3043 3044 3045 3046 3047 3049 3051 3053 3054 3055 3053 3053 3056 3058 3056 3059 3063 3064 3066 3070 3072 3074 3077 3079 3080 3082 3083 3085 3088 3090 3089 3090 3093 3096 3097 3098 3100 3103 3106 3108 3109 3111 3112 3114 3115 3114 3114 3116 3119 3121 3123 3125 3127 3130 3133 3135 3135 3137 3139 3141 3142 3143 3145 3147 3149 3151 3152 3154 3155 3156 3158 3159 3161 3162 3165 3166 3166 3166
3033 3030 3030 3033 3035 3036 3039 3040 3040 3041 3042 3043 3044 3045 3047 3049 3050 3050 3049 3051 3054 3054 3053 3056 3060 3061 3064 3069 3071 3072 3075 3077 3079 3082 3083 3084 3086 3089 3090 3090 3092 3093 3094 3095 3096 3099 3102 3104 3106 3107 3108 3110 3111 3111 3112 3115 3117 3119 3121 3122 3124 3126 3129 3131 3132 3134 3136 3138 3139 3141 3143 3145 3147 3148 3149 3151 3152 3153 3155 3157 3158 3160 3161 3162 3163 3163
3030 3026 3026 3029 3031 3033 3035 3036 3037 3038 3039 3039 3040 3041 3043 3045 3047 3047 3047 3048 3050 3051 3052 3055 3057 3059 3062 3066 3068 3071 3074 3076 3078 3081 3082 3083 3084 3087 3088 3090 3091 3093 3094 3093 3093 3096 3099 3100 3102 3103 3105 3106 3107 3109 3111 3113 3115 3116 3117 3119 3121 3123 3126 3128 3129 3131 3133 3135 3137 3138 3140 3142 3143 3145 3146 3148 3149 3151 3152 3154 3156 3157 3158 3159 3160 3161
3026 3024 3026 3029 3029 3028 3030 3032 3035 3035 3035 3036 3037 3038 3040 3041 3042 3043 3044 3045 3047 3048 3051 3053 3055 3056 3059 3063 3066 3069 3071 3074 3076 3078 3080 3082 3082 3084 3086 3087 3089 3091 3093 3092 3092 3094 3096 3097 3099 3101 3102 3104 3105 3107 3109 3110 3111 3113 3115 3116 3119 3121 3122 3124 3126 3128 3130 3132 3134 3136 3138 3139 3140 3142 3143 3144 3146 3148 3150 3152 3153 3155 3155 3156 3158 3158
3023 3024 3026 3028 3026 3023 3025 3028 3030 3032 3035 3035 3034 3034 3035 3036 3037 3038 3040 3043 3045 3046 3048 3050 3050 3052 3056 3060 3064 3066 3068 3070 3072 3075 3077 3079 3080 3081 3083 3084 3085 3087 3089 3090 3091 3092 3093 3094 3096 3098 3100 3102 3103 3105 3106 3107 3108 3110 3111 3113 3115 3118 3119 3120 3122 3125 3127 3129 3131 3133 3135 3136 3137 3138 3139 3141 3143 3145 3147 3149 3150 3152 3153 3153 3154 3154
3021 3022 3023 3025 3023 3021 3023 3024 3026 3031 3032 3028 3026 3028 3031 3033 3035 3036 3036 3039 3042 3045 3046 3047 3048 3050 3054 3058 3060 3062 3064 3065 3068 3070 3073 3075 3077 3079 3080 3082 3083 3085 3086 3087 3088 3090 3090 3091 3093 3095 3097 3099 3100 3102 3103 3104 3105 3106 3108 3110 3112 3114 3116 3117 3119 3122 3124 3126 3128 3130 3132 3133 3133 3134 3136 3138 3141 3143 3144 3146 3147 3149 3149 3150 3150 3150
3017 3019 3020 3022 3020 3019 3022 3024 3026 3027 3023 3018 3022 3029 3031 3032 3034 3034 3034 3036 3039 3040 3041 3043 3046 3048 3051 3053 3055 3057 3060 3062 3063 3066 3068 3071 3074 3075 3077 3079 3081 3083 3084 3083 3084 3086 3087 3088 3090 3091 3094 3096 3098 3099 3100 3101 3102 3103 3105 3107 3109 3112 3113 3114 3116 3119 3121 3123 3125 3126 3127 3129 3130 3132 3134 3136 3138 3140 3141 3142 3144 3145 3146 3146 3146 3146
3012 3015 3017 3018 3016 3017 3021 3023 3022 3018 3015 3018 3026 3031 3031 3031 3032 3032 3032 3034 3036 3037 3038 3040 3042 3044 3046 3049 3051 3052 3054 3056 3059 3061 3064 3068 3070 3071 3073 3075 3077 3079 3081 3081 3081 3081 3083 3085 3087 3088 3090 3093 3095 3096 3097 3098 3099 3101 3102 3104 3106 3108 3110 3111 3112 3115 3118 3120 3121 3122 3123 3126 3128 3130 3132 3134 3135 3137 3138 3139 3141 3142 3142 3142 3142 3143
3009 3011 3012 3013 3013 3015 3017 3017 3014 3012 3015 3021 3025 3027 3029 3030 3030 3030 3029 3029 3032 3035 3036 3037 3037 3039 3041 3045 3048 3049 3050 3052 3054 3055 3058 3062 3065 3067 3068 3070 3073 3075 3077 3078 3079 3078 3080 3082 3084 3085 3087 3090 3092 3093 3094 3095 3097 3098 3099 3100 3102 3104 3107 3108 3108 3110 3114 3116 3116 3118 3120 3123 3126 3127 3129 3131 3132 3134 3135 3136 3137 3138 3139 3139 3139 3139
3007 3008 3007 3008 3010 3012 3013 3012 3013 3014 3016 3019 3021 3024 3026 3027 3028 3028 3027 3026 3029 3033 3033 3031 3032 3034 3036 3039 3043 3047 3049 3051 3051 3051 3053 3056 3059 3062 3064 3066 3068 3070 3072 3074 3076 3076 3077 3078 3080 3082 3083 3085 3087 3089 3090 3092 3093 3094 3095 3096 3098 3100 3103 3105 3105 3106 3109 3110 3111 3114 3117 3119 3122 3124 3126 3128 3129 3131 3132 3133 3134 3135 3136 3136 3136 3136
3005 3006 3006 3005 3007 3010 3011 3012 3012 3012 3011 3013 3018 3022 3024 3025 3025 3024 3023 3023 3026 3029 3028 3029 3031 3033 3034 3035 3038 3041 3045 3047 3047 3048 3051 3053 3055 3057 3059 3061 3064 3065 3067 3069 3071 3072 3072 3073 3075 3077 3079 3081 3082 3084 3086 3088 3089 3090 3091 3092 3094 3096 3099 3100 3101 3102 3104 3106 3109 3111 3113 3116 3119 3121 3122 3124 3126 3128 3129 3131 3132 3133 3134 3134 3135 3135
3003 3005 3006 3006 3005 3007 3009 3008 3007 3006 3007 3012 3018 3020 3022 3024 3023 3022 3023 3024 3025 3026 3026 3027 3030 3031 3032 3034 3035 3035 3038 3040 3042 3046 3049 3050 3052 3053 3054 3056 3059 3059 3060 3064 3067 3068 3067 3067 3069 3071 3074 3075 3077 3079 3081 3083 3084 3085 3086 3087 3090 3092 3094 3095 3096 3098 3100 3103 3105 3108 3110 3113 3115 3117 3119 3121 3123 3125 3126 3127 3129 3130 3132 3133 3134 3134
3003 3005 3006 3006 3005 3006 3007 3006 3004 3005 3007 3011 3016 3018 3020 3021 3021 3023 3024 3023 3023 3024 3024 3026 3028 3028 3030 3034 3035 3035 3036 3036 3037 3042 3046 3047 3049 3050 3049 3051 3053 3053 3054 3057 3061 3064 3063 3061 3061 3065 3068 3069 3072 3074 3076 3077 3079 3080 3081 3082 3084 3087 3090 3091 3093 3096 3098 3099 3101 3104 3107 3110 3112 3114 3116 3118 3120 3121 3122 3124 3125 3127 3129 3130 3131 3132
3002 3004 3005 3006 3005 3006 3007 3005 3004 3005 3007 3010 3014 3017 3017 3018 3021 3022 3021 3020 3021 3022 3023 3025 3027 3027 3028 3032 3034 3034 3035 3035 3036 3038 3040 3043 3046 3046 3044 3044 3045 3046 3048 3050 3055 3059 3058 3054 3055 3059 3062 3064 3067 3069 3070 3072 3073 3074 3075 3077 3079 3083 3085 3086 3089 3093 3094 3095 3098 3101 3104 3107 3109 3111 3113 3114 3116 3118 3120 3121 3123 3124 3125 3126 3126 3127
3002 3003 3004 3005 3005 3005 3006 3006 3005 3006 3006 3008 3012 3014 3014 3017 3020 3019 3018 3018 3019 3020 3022 3024 3025 3024 3026 3029 3030 3030 3031 3032 3034 3035 3035 3038 3040 3040 3038 3038 3040 3041 3042 3044 3049 3052 3051 3049 3051 3055 3057 3059 3062 3064 3065 3066 3068 3069 3070 3071 3073 3077 3079 3079 3083 3088 3090 3092 3096 3099 3101 3104 3106 3108 3110 3112 3114 3116 3118 3119 3120 3121 3122 3122 3121 3122
3003 3004 3002 3002 3003 3004 3004 3005 3005 3005 3005 3007 3010 3013 3014 3015 3016 3016 3015 3016 3017 3019 3021 3021 3021 3022 3023 3025 3026 3027 3028 3028 3029 3031 3032 3033 3034 3033 3031 3033 3036 3038 3038 3041 3043 3044 3045 3046 3047 3050 3052 3054 3056 3059 3060 3061 3062 3064 3066 3068 3070 3072 3073 3074 3078 3083 3086 3089 3093 3096 3098 3100 3102 3104 3107 3109 3111 3114 3116 3117 3118 3118 3118 3117 3116 3117
3003 3004 3002 3002 3003 3003 3002 3001 3002 3004 3005 3006 3008 3011 3013 3012 3011 3013 3014 3013 3014 3017 3018 3019 3020 3020 3021 3021 3021 3023 3025 3025 3026 3029 3029 3029 3029 3028 3025 3026 3031 3034 3036 3038 3039 3040 3042 3042 3042 3044 3047 3049 3051 3053 3054 3056 3058 3060 3062 3065 3067 3068 3069 3071 3075 3079 3083 3086 3089 3092 3094 3097 3099 3101 3103 3105 3107 3109 3112 3114 3115 3114 3114 3113 3112 3112
2999 3000 3000 2999 2999 3000 3000 3000 3001 3003 3005 3005 3006 3009 3010 3007 3007 3009 3011 3011 3012 3015 3016 3017 3018 3018 3018 3019 3020 3020 3022 3023 3024 3026 3026 3026 3026 3025 3023 3024 3028 3030 3032 3034 3034 3035 3036 3036 3037 3039 3041 3042 3044 3046 3048 3050 3053 3055 3057 3060 3062 3064 3066 3069 3072 3076 3079 3082 3085 3088 3091 3093 3096 3098 3100 3101 3103 3104 3107 3109 3109 3109 3109 3109 3109 3108
2996 2995 2997 2997 2997 2998 2998 2998 3000 3001 3002 3003 3005 3006 3005 3003 3003 3006 3008 3010 3013 3014 3014 3014 3015 3015 3016 3018 3019 3020 3020 3021 3022 3021 3022 3023 3024 3023 3022 3023 3026 3028 3029 3030 3031 3032 3031 3031 3032 3034 3034 3036 3038 3040 3042 3045 3048 3050 3052 3056 3059 3062 3065 3066 3069 3072 3076 3079 3082 3086 3089 3091 3094 3096 3098 3099 3099 3100 3102 3104 3105 3104 3104 3104 3104 3105
2994 2993 2995 2995 2994 2994 2994 2994 2995 2996 2997 2999 3002 3003 3002 3001 3003 3004 3006 3010 3012 3012 3012 3012 3012 3013 3015 3016 3018 3019 3019 3018 3018 3017 3017 3019 3020 3021 3021 3022 3023 3025 3025 3026 3028 3028 3024 3021 3023 3025 3027 3029 3031 3034 3037 3039 3042 3046 3049 3052 3056 3060 3063 3065 3067 3070 3073 3077 3080 3083 3086 3089 3091 3094 3096 3098 3097 3097 3098 3100 3101 3100 3100 3100 3100 3100
2992 2992 2993 2993 2992 2992 2991 2989 2988 2990 2993 2996 2999 3001 3000 2999 3001 3003 3004 3006 3008 3009 3010 3011 3011 3012 3013 3013 3015 3015 3014 3013 3012 3012 3012 3013 3014 3015 3017 3018 3018 3019 3021 3023 3025 3023 3019 3017 3019 3022 3023 3024 3026 3029 3032 3034 3037 3043 3047 3050 3054 3058 3062 3064 3067 3070 3072 3075 3078 3081 3082 3084 3086 3089 3093 3095 3095 3095 3096 3097 3097 3097 3096 3096 3096 3097
2991 2991 2992 2992 2991 2991 2988 2985 2985 2988 2992 2995 2997 2999 2998 2997 2998 3000 3002 3003 3005 3007 3009 3009 3009 3009 3010 3011 3012 3011 3009 3008 3008 3009 3009 3010 3010 3011 3014 3015 3013 3012 3015 3019 3021 3018 3015 3015 3016 3018 3021 3022 3024 3027 3030 3033 3037 3041 3045 3049 3053 3057 3061 3064 3066 3069 3071 3074 3076 3078 3079 3080 3082 3084 3088 3092 3092 3092 3092 3093 3093 3093 3093 3092 3093 3094
2989 2991 2991 2990 2989 2988 2986 2986 2987 2988 2990 2994 2997 2998 2997 2995 2996 2999 3001 3001 3003 3006 3007 3007 3007 3007 3007 3008 3008 3008 3007 3006 3006 3007 3009 3011 3012 3011 3013 3014 3014 3012 3011 3013 3013 3011 3011 3013 3016 3019 3022 3024 3026 3029 3033 3036 3039 3042 3046 3050 3053 3057 3060 3063 3065 3067 3069 3072 3074 3075 3076 3078 3079 3081 3084 3087 3088 3088 3088 3088 3088 3089 3089 3089 3090 3091
2988 2989 2989 2989 2987 2985 2984 2985 2987 2987 2989 2993 2996 2996 2996 2996 2996 2998 3000 3001 3002 3004 3005 3005 3005 3005 3005 3005 3006 3006 3005 3005 3005 3007 3011 3013 3014 3014 3015 3017 3018 3016 3013 3011 3010 3010 3012 3017 3022 3025 3028 3031 3032 3034 3037 3039 3041 3044 3047 3050 3053 3056 3059 3062 3064 3066 3068 3070 3071 3073 3075 3077 3078 3079 3081 3083 3084 3083 3083 3084 3084 3085 3086 3086 3087 3088